Year,Month,Day,Hour,Minute,Value (Times are PST for temperature in C)
2018,12,10,00,00,7.10
2018,12,10,00,01,7.10
2018,12,10,00,02,7.10
2018,12,10,00,03,7.10
2018,12,10,00,04,7.10
2018,12,10,00,05,7.10
2018,12,10,00,06,7.10
2018,12,10,00,07,7.10
2018,12,10,00,08,7.10
2018,12,10,00,09,7.10
2018,12,10,00,10,7.10
2018,12,10,00,11,7.10
2018,12,10,00,12,7.10
2018,12,10,00,13,7.10
2018,12,10,00,14,7.10
2018,12,10,00,15,7.10
2018,12,10,00,16,7.10
2018,12,10,00,17,7.10
2018,12,10,00,18,7.10
2018,12,10,00,19,7.10
2018,12,10,00,20,7.10
2018,12,10,00,21,7.10
2018,12,10,00,22,7.10
2018,12,10,00,23,7.10
2018,12,10,00,24,7.10
2018,12,10,00,25,7.10
2018,12,10,00,26,7.10
2018,12,10,00,27,7.10
2018,12,10,00,28,7.10
2018,12,10,00,29,7.10
2018,12,10,00,30,7.10
2018,12,10,00,31,7.10
2018,12,10,00,32,7.10
2018,12,10,00,33,7.10
2018,12,10,00,34,7.10
2018,12,10,00,35,7.10
2018,12,10,00,36,7.10
2018,12,10,00,37,7.10
2018,12,10,00,38,7.00
2018,12,10,00,39,7.10
2018,12,10,00,40,7.00
2018,12,10,00,41,7.00
2018,12,10,00,42,7.00
2018,12,10,00,43,7.00
2018,12,10,00,44,7.00
2018,12,10,00,45,7.00
2018,12,10,00,46,7.00
2018,12,10,00,47,7.00
2018,12,10,00,48,7.00
2018,12,10,00,49,7.00
2018,12,10,00,50,7.00
2018,12,10,00,51,7.00
2018,12,10,00,52,7.00
2018,12,10,00,53,7.00
2018,12,10,00,54,7.00
2018,12,10,00,55,7.00
2018,12,10,00,56,7.00
2018,12,10,00,57,7.00
2018,12,10,00,58,7.00
2018,12,10,00,59,7.00
2018,12,10,01,00,7.00
2018,12,10,01,01,7.00
2018,12,10,01,02,7.00
2018,12,10,01,03,7.00
2018,12,10,01,04,7.00
2018,12,10,01,05,7.00
2018,12,10,01,06,7.00
2018,12,10,01,07,7.00
2018,12,10,01,08,7.00
2018,12,10,01,09,7.00
2018,12,10,01,10,7.00
2018,12,10,01,11,7.00
2018,12,10,01,12,7.00
2018,12,10,01,13,7.00
2018,12,10,01,14,7.00
2018,12,10,01,15,7.00
2018,12,10,01,16,7.00
2018,12,10,01,17,7.00
2018,12,10,01,18,7.00
2018,12,10,01,19,7.00
2018,12,10,01,20,7.00
2018,12,10,01,21,7.00
2018,12,10,01,22,7.00
2018,12,10,01,23,7.00
2018,12,10,01,24,7.00
2018,12,10,01,25,7.00
2018,12,10,01,26,7.00
2018,12,10,01,27,7.00
2018,12,10,01,28,7.00
2018,12,10,01,29,7.00
2018,12,10,01,30,7.00
2018,12,10,01,31,7.00
2018,12,10,01,32,7.00
2018,12,10,01,33,7.00
2018,12,10,01,34,7.00
2018,12,10,01,35,7.00
2018,12,10,01,36,7.00
2018,12,10,01,37,6.90
2018,12,10,01,38,6.90
2018,12,10,01,39,6.90
2018,12,10,01,40,6.90
2018,12,10,01,41,6.90
2018,12,10,01,42,6.90
2018,12,10,01,43,6.90
2018,12,10,01,44,6.90
2018,12,10,01,45,6.90
2018,12,10,01,46,6.90
2018,12,10,01,47,6.90
2018,12,10,01,48,6.90
2018,12,10,01,49,6.90
2018,12,10,01,50,6.90
2018,12,10,01,51,6.90
2018,12,10,01,52,6.90
2018,12,10,01,53,6.90
2018,12,10,01,54,6.90
2018,12,10,01,55,6.90
2018,12,10,01,56,6.90
2018,12,10,01,57,6.90
2018,12,10,01,58,6.90
2018,12,10,01,59,6.90
2018,12,10,02,00,6.90
2018,12,10,02,01,6.90
2018,12,10,02,02,6.90
2018,12,10,02,03,6.90
2018,12,10,02,04,6.90
2018,12,10,02,05,6.90
2018,12,10,02,06,6.90
2018,12,10,02,07,6.90
2018,12,10,02,08,6.90
2018,12,10,02,09,6.90
2018,12,10,02,10,6.90
2018,12,10,02,11,6.90
2018,12,10,02,12,6.90
2018,12,10,02,13,7.00
2018,12,10,02,14,7.00
2018,12,10,02,15,7.00
2018,12,10,02,16,7.00
2018,12,10,02,17,7.00
2018,12,10,02,18,6.90
2018,12,10,02,19,6.90
2018,12,10,02,20,6.90
2018,12,10,02,21,6.90
2018,12,10,02,22,6.90
2018,12,10,02,23,6.90
2018,12,10,02,24,6.90
2018,12,10,02,25,6.90
2018,12,10,02,26,6.90
2018,12,10,02,27,6.90
2018,12,10,02,28,6.90
2018,12,10,02,29,6.90
2018,12,10,02,30,6.90
2018,12,10,02,31,6.90
2018,12,10,02,32,6.90
2018,12,10,02,33,6.90
2018,12,10,02,34,6.90
2018,12,10,02,35,6.90
2018,12,10,02,36,6.90
2018,12,10,02,37,6.90
2018,12,10,02,38,6.90
2018,12,10,02,39,6.90
2018,12,10,02,40,6.90
2018,12,10,02,41,6.90
2018,12,10,02,42,6.90
2018,12,10,02,43,6.80
2018,12,10,02,44,6.80
2018,12,10,02,45,6.80
2018,12,10,02,46,6.80
2018,12,10,02,47,6.80
2018,12,10,02,48,6.80
2018,12,10,02,49,6.80
2018,12,10,02,50,6.80
2018,12,10,02,51,6.80
2018,12,10,02,52,6.80
2018,12,10,02,53,6.80
2018,12,10,02,54,6.80
2018,12,10,02,55,6.80
2018,12,10,02,56,6.80
2018,12,10,02,57,6.80
2018,12,10,02,58,6.80
2018,12,10,02,59,6.80
2018,12,10,03,00,6.80
2018,12,10,03,01,6.80
2018,12,10,03,02,6.80
2018,12,10,03,03,6.90
2018,12,10,03,04,6.90
2018,12,10,03,05,6.90
2018,12,10,03,06,6.90
2018,12,10,03,07,7.00
2018,12,10,03,08,7.00
2018,12,10,03,09,7.00
2018,12,10,03,10,6.90
2018,12,10,03,11,6.90
2018,12,10,03,12,6.90
2018,12,10,03,13,6.90
2018,12,10,03,14,6.90
2018,12,10,03,15,7.00
2018,12,10,03,16,7.00
2018,12,10,03,17,7.00
2018,12,10,03,18,7.00
2018,12,10,03,19,7.10
2018,12,10,03,20,7.10
2018,12,10,03,21,7.10
2018,12,10,03,22,7.10
2018,12,10,03,23,7.20
2018,12,10,03,24,7.20
2018,12,10,03,25,7.20
2018,12,10,03,26,7.20
2018,12,10,03,27,7.20
2018,12,10,03,28,7.20
2018,12,10,03,29,7.20
2018,12,10,03,30,7.20
2018,12,10,03,31,7.20
2018,12,10,03,32,7.20
2018,12,10,03,33,7.20
2018,12,10,03,34,7.20
2018,12,10,03,35,7.20
2018,12,10,03,36,7.20
2018,12,10,03,37,7.20
2018,12,10,03,38,7.20
2018,12,10,03,39,7.20
2018,12,10,03,40,7.20
2018,12,10,03,41,7.20
2018,12,10,03,42,7.20
2018,12,10,03,43,7.30
2018,12,10,03,44,7.20
2018,12,10,03,45,7.30
2018,12,10,03,46,7.20
2018,12,10,03,47,7.20
2018,12,10,03,48,7.20
2018,12,10,03,49,7.20
2018,12,10,03,50,7.20
2018,12,10,03,51,7.20
2018,12,10,03,52,7.20
2018,12,10,03,53,7.20
2018,12,10,03,54,7.20
2018,12,10,03,55,7.20
2018,12,10,03,56,7.20
2018,12,10,03,57,7.20
2018,12,10,03,58,7.10
2018,12,10,03,59,7.10
2018,12,10,04,00,7.10
2018,12,10,04,01,7.10
2018,12,10,04,02,7.10
2018,12,10,04,03,7.10
2018,12,10,04,04,7.10
2018,12,10,04,05,7.10
2018,12,10,04,06,7.10
2018,12,10,04,07,7.10
2018,12,10,04,08,7.10
2018,12,10,04,09,7.00
2018,12,10,04,10,7.00
2018,12,10,04,11,7.00
2018,12,10,04,12,7.00
2018,12,10,04,13,7.00
2018,12,10,04,14,7.00
2018,12,10,04,15,7.00
2018,12,10,04,16,7.00
2018,12,10,04,17,7.00
2018,12,10,04,18,6.90
2018,12,10,04,19,6.90
2018,12,10,04,20,6.90
2018,12,10,04,21,6.90
2018,12,10,04,22,6.90
2018,12,10,04,23,6.90
2018,12,10,04,24,6.90
2018,12,10,04,25,6.90
2018,12,10,04,26,6.90
2018,12,10,04,27,6.90
2018,12,10,04,28,6.90
2018,12,10,04,29,6.90
2018,12,10,04,30,6.90
2018,12,10,04,31,6.90
2018,12,10,04,32,6.90
2018,12,10,04,33,6.90
2018,12,10,04,34,6.80
2018,12,10,04,35,6.80
2018,12,10,04,36,6.80
2018,12,10,04,37,6.80
2018,12,10,04,38,6.80
2018,12,10,04,39,6.80
2018,12,10,04,40,6.80
2018,12,10,04,41,6.80
2018,12,10,04,42,6.80
2018,12,10,04,43,6.70
2018,12,10,04,44,6.70
2018,12,10,04,45,6.70
2018,12,10,04,46,6.70
2018,12,10,04,47,6.70
2018,12,10,04,48,6.70
2018,12,10,04,49,6.70
2018,12,10,04,50,6.70
2018,12,10,04,51,6.60
2018,12,10,04,52,6.60
2018,12,10,04,53,6.60
2018,12,10,04,54,6.60
2018,12,10,04,55,6.60
2018,12,10,04,56,6.60
2018,12,10,04,57,6.60
2018,12,10,04,58,6.60
2018,12,10,04,59,6.60
2018,12,10,05,00,6.50
2018,12,10,05,01,6.50
2018,12,10,05,02,6.40
2018,12,10,05,03,6.40
2018,12,10,05,04,6.40
2018,12,10,05,05,6.40
2018,12,10,05,06,6.40
2018,12,10,05,07,6.40
2018,12,10,05,08,6.40
2018,12,10,05,09,6.40
2018,12,10,05,10,6.40
2018,12,10,05,11,6.40
2018,12,10,05,12,6.40
2018,12,10,05,13,6.40
2018,12,10,05,14,6.40
2018,12,10,05,15,6.30
2018,12,10,05,16,6.30
2018,12,10,05,17,6.20
2018,12,10,05,18,6.10
2018,12,10,05,19,6.00
2018,12,10,05,20,5.90
2018,12,10,05,21,5.90
2018,12,10,05,22,5.80
2018,12,10,05,23,5.80
2018,12,10,05,24,5.80
2018,12,10,05,25,5.80
2018,12,10,05,26,5.80
2018,12,10,05,27,5.80
2018,12,10,05,28,5.90
2018,12,10,05,29,5.90
2018,12,10,05,30,5.90
2018,12,10,05,31,5.90
2018,12,10,05,32,5.90
2018,12,10,05,33,5.90
2018,12,10,05,34,5.90
2018,12,10,05,35,5.90
2018,12,10,05,36,5.90
2018,12,10,05,37,5.90
2018,12,10,05,38,5.90
2018,12,10,05,39,5.90
2018,12,10,05,40,5.90
2018,12,10,05,41,5.90
2018,12,10,05,42,5.90
2018,12,10,08,49,5.20
2018,12,10,08,50,5.20
2018,12,10,08,51,5.20
2018,12,10,08,52,5.20
2018,12,10,08,53,5.20
2018,12,10,08,54,5.20
2018,12,10,08,55,5.20
2018,12,10,08,56,5.20
2018,12,10,08,57,5.30
2018,12,10,08,58,5.30
2018,12,10,08,59,5.30
2018,12,10,09,00,5.30
2018,12,10,09,01,5.30
2018,12,10,09,02,5.40
2018,12,10,09,03,5.40
2018,12,10,09,04,5.40
2018,12,10,09,05,5.50
2018,12,10,09,06,5.50
2018,12,10,09,07,5.60
2018,12,10,09,08,5.60
2018,12,10,09,09,5.60
2018,12,10,09,10,5.50
2018,12,10,09,11,5.50
2018,12,10,09,12,5.40
2018,12,10,09,13,5.40
2018,12,10,09,14,5.40
2018,12,10,09,15,5.40
2018,12,10,09,16,5.40
2018,12,10,09,17,5.40
2018,12,10,09,18,5.40
2018,12,10,09,19,5.40
2018,12,10,09,20,5.40
2018,12,10,09,21,5.40
2018,12,10,09,22,5.40
2018,12,10,09,23,5.40
2018,12,10,09,24,5.40
2018,12,10,09,25,5.40
2018,12,10,09,26,5.40
2018,12,10,09,27,5.40
2018,12,10,09,28,5.40
2018,12,10,09,29,5.40
2018,12,10,09,30,5.40
2018,12,10,09,31,5.40
2018,12,10,09,32,5.30
2018,12,10,09,33,5.30
2018,12,10,09,34,5.30
2018,12,10,09,35,5.40
2018,12,10,09,36,5.40
2018,12,10,09,37,5.40
2018,12,10,09,38,5.40
2018,12,10,09,39,5.40
2018,12,10,09,40,5.50
2018,12,10,09,41,5.50
2018,12,10,09,42,5.50
2018,12,10,09,43,5.60
2018,12,10,09,44,5.60
2018,12,10,09,45,5.60
2018,12,10,09,46,5.60
2018,12,10,09,47,5.70
2018,12,10,09,48,5.70
2018,12,10,09,49,5.70
2018,12,10,09,50,5.70
2018,12,10,09,51,5.70
2018,12,10,09,52,5.70
2018,12,10,09,53,5.70
2018,12,10,09,54,5.70
2018,12,10,09,55,5.70
2018,12,10,09,56,5.80
2018,12,10,09,57,5.80
2018,12,10,09,58,5.80
2018,12,10,09,59,5.80
2018,12,10,10,00,5.80
2018,12,10,10,01,5.80
2018,12,10,10,02,5.70
2018,12,10,10,03,5.70
2018,12,10,10,04,5.70
2018,12,10,10,05,5.80
2018,12,10,10,06,5.70
2018,12,10,10,07,5.70
2018,12,10,10,08,5.80
2018,12,10,10,09,5.80
2018,12,10,10,10,5.80
2018,12,10,10,11,5.80
2018,12,10,10,12,5.80
2018,12,10,10,13,5.80
2018,12,10,10,14,5.90
2018,12,10,10,15,5.90
2018,12,10,10,16,5.90
2018,12,10,10,17,6.00
2018,12,10,10,18,6.00
2018,12,10,10,19,6.10
2018,12,10,10,20,6.10
2018,12,10,10,21,6.10
2018,12,10,10,22,6.20
2018,12,10,10,23,6.20
2018,12,10,10,24,6.20
2018,12,10,10,25,6.30
2018,12,10,10,26,6.30
2018,12,10,10,27,6.30
2018,12,10,10,28,6.30
2018,12,10,10,29,6.30
2018,12,10,10,30,6.30
2018,12,10,10,31,6.30
2018,12,10,10,32,6.40
2018,12,10,10,33,6.40
2018,12,10,10,34,6.40
2018,12,10,10,35,6.40
2018,12,10,10,36,6.40
2018,12,10,10,37,6.40
2018,12,10,10,38,6.50
2018,12,10,10,39,6.50
2018,12,10,10,40,6.50
2018,12,10,10,41,6.50
2018,12,10,10,42,6.60
2018,12,10,10,43,6.60
2018,12,10,10,44,6.60
2018,12,10,10,45,6.60
2018,12,10,10,46,6.60
2018,12,10,10,47,6.70
2018,12,10,10,48,6.70
2018,12,10,10,49,6.70
2018,12,10,10,50,6.70
2018,12,10,10,51,6.70
2018,12,10,10,52,6.80
2018,12,10,10,53,6.80
2018,12,10,10,54,6.80
2018,12,10,10,55,6.80
2018,12,10,10,56,6.90
2018,12,10,10,57,6.90
2018,12,10,10,58,7.00
2018,12,10,10,59,7.10
2018,12,10,11,00,7.20
2018,12,10,11,01,7.20
2018,12,10,11,02,7.20
2018,12,10,11,03,7.30
2018,12,10,11,04,7.20
2018,12,10,11,05,7.20
2018,12,10,11,06,7.20
2018,12,10,11,07,7.20
2018,12,10,11,08,7.10
2018,12,10,11,09,7.10
2018,12,10,11,10,7.20
2018,12,10,11,11,7.20
2018,12,10,11,12,7.20
2018,12,10,11,13,7.20
2018,12,10,11,14,7.20
2018,12,10,11,15,7.20
2018,12,10,11,16,7.20
2018,12,10,11,17,7.20
2018,12,10,11,18,7.20
2018,12,10,11,19,7.20
2018,12,10,11,20,7.20
2018,12,10,11,21,7.20
2018,12,10,11,22,7.20
2018,12,10,11,23,7.20
2018,12,10,11,24,7.20
2018,12,10,11,25,7.20
2018,12,10,11,26,7.20
2018,12,10,11,27,7.20
2018,12,10,11,28,7.20
2018,12,10,11,29,7.20
2018,12,10,11,30,7.30
2018,12,10,11,31,7.30
2018,12,10,11,32,7.30
2018,12,10,11,33,7.40
2018,12,10,11,34,7.40
2018,12,10,11,35,7.50
2018,12,10,11,36,7.60
2018,12,10,11,37,7.70
2018,12,10,11,38,7.70
2018,12,10,11,39,7.70
2018,12,10,11,40,7.80
2018,12,10,11,41,7.90
2018,12,10,11,42,7.90
2018,12,10,11,43,7.90
2018,12,10,11,44,7.90
2018,12,10,11,45,8.00
2018,12,10,11,46,8.00
2018,12,10,11,47,8.00
2018,12,10,11,48,8.00
2018,12,10,11,49,8.00
2018,12,10,11,50,8.00
2018,12,10,11,51,8.10
2018,12,10,11,52,8.20
2018,12,10,11,53,8.20
2018,12,10,11,54,8.20
2018,12,10,11,55,8.20
2018,12,10,11,56,8.30
2018,12,10,11,57,8.30
2018,12,10,11,58,8.30
2018,12,10,11,59,8.30
2018,12,10,12,00,8.30
2018,12,10,12,01,8.40
2018,12,10,12,02,8.40
2018,12,10,12,03,8.40
2018,12,10,12,04,8.30
2018,12,10,12,05,8.30
2018,12,10,12,06,8.30
2018,12,10,12,07,8.40
2018,12,10,12,08,8.40
2018,12,10,12,09,8.50
2018,12,10,12,10,8.50
2018,12,10,12,11,8.50
2018,12,10,12,12,8.50
2018,12,10,12,13,8.60
2018,12,10,12,14,8.60
2018,12,10,12,15,8.70
2018,12,10,12,16,8.80
2018,12,10,12,17,8.70
2018,12,10,12,18,8.70
2018,12,10,12,19,8.80
2018,12,10,12,20,8.80
2018,12,10,12,21,8.80
2018,12,10,12,22,8.90
2018,12,10,12,23,8.90
2018,12,10,12,24,8.90
2018,12,10,12,25,8.90
2018,12,10,12,26,8.90
2018,12,10,12,27,8.90
2018,12,10,12,28,9.00
2018,12,10,12,29,9.00
2018,12,10,12,30,9.00
2018,12,10,12,31,9.00
2018,12,10,12,32,9.10
2018,12,10,12,33,9.10
2018,12,10,12,34,9.10
2018,12,10,12,35,9.10
2018,12,10,12,36,9.20
2018,12,10,12,37,9.20
2018,12,10,12,38,9.20
2018,12,10,12,39,9.20
2018,12,10,12,40,9.20
2018,12,10,12,41,9.30
2018,12,10,12,42,9.30
2018,12,10,12,43,9.30
2018,12,10,12,44,9.40
2018,12,10,12,45,9.40
2018,12,10,12,46,9.40
2018,12,10,12,47,9.40
2018,12,10,12,48,9.40
2018,12,10,12,49,9.30
2018,12,10,12,50,9.30
2018,12,10,12,51,9.30
2018,12,10,12,52,9.30
2018,12,10,12,53,9.30
2018,12,10,12,54,9.20
2018,12,10,12,55,9.20
2018,12,10,12,56,9.20
2018,12,10,12,57,9.20
2018,12,10,12,58,9.20
2018,12,10,12,59,9.20
2018,12,10,13,00,9.20
2018,12,10,13,01,9.10
2018,12,10,13,02,9.10
2018,12,10,13,03,9.10
2018,12,10,13,04,9.10
2018,12,10,13,05,9.10
2018,12,10,13,06,9.10
2018,12,10,13,07,9.20
2018,12,10,13,08,9.20
2018,12,10,13,09,9.20
2018,12,10,13,10,9.20
2018,12,10,13,11,9.30
2018,12,10,13,12,9.30
2018,12,10,13,13,9.30
2018,12,10,13,14,9.40
2018,12,10,13,15,9.50
2018,12,10,13,16,9.60
2018,12,10,13,17,9.70
2018,12,10,13,18,9.70
2018,12,10,13,19,9.80
2018,12,10,13,20,9.80
2018,12,10,13,21,9.80
2018,12,10,13,22,9.80
2018,12,10,13,23,9.70
2018,12,10,13,24,9.60
2018,12,10,13,25,9.60
2018,12,10,13,26,9.50
2018,12,10,13,27,9.50
2018,12,10,13,28,9.40
2018,12,10,13,29,9.40
2018,12,10,13,30,9.40
2018,12,10,13,31,9.30
2018,12,10,13,32,9.30
2018,12,10,13,33,9.30
2018,12,10,13,34,9.30
2018,12,10,13,35,9.30
2018,12,10,13,36,9.30
2018,12,10,13,37,9.30
2018,12,10,13,38,9.30
2018,12,10,13,39,9.40
2018,12,10,13,40,9.40
2018,12,10,13,41,9.50
2018,12,10,13,42,9.60
2018,12,10,13,43,9.60
2018,12,10,13,44,9.60
2018,12,10,13,45,9.50
2018,12,10,13,46,9.50
2018,12,10,13,47,9.40
2018,12,10,13,48,9.40
2018,12,10,13,49,9.30
2018,12,10,13,50,9.30
2018,12,10,13,51,9.30
2018,12,10,13,52,9.20
2018,12,10,13,53,9.20
2018,12,10,13,54,9.20
2018,12,10,13,55,9.20
2018,12,10,13,56,9.20
2018,12,10,13,57,9.20
2018,12,10,13,58,9.20
2018,12,10,13,59,9.10
2018,12,10,14,00,9.10
2018,12,10,14,01,9.10
2018,12,10,14,02,9.10
2018,12,10,14,03,9.00
2018,12,10,14,04,9.00
2018,12,10,14,05,8.90
2018,12,10,14,06,8.90
2018,12,10,14,07,8.90
2018,12,10,14,08,8.80
2018,12,10,14,09,8.80
2018,12,10,14,10,8.80
2018,12,10,14,11,8.80
2018,12,10,14,12,8.80
2018,12,10,14,13,8.80
2018,12,10,14,14,8.70
2018,12,10,14,15,8.70
2018,12,10,14,16,8.70
2018,12,10,14,17,8.70
2018,12,10,14,18,8.70
2018,12,10,14,19,8.70
2018,12,10,14,20,8.70
2018,12,10,14,21,8.70
2018,12,10,14,22,8.70
2018,12,10,14,23,8.60
2018,12,10,14,24,8.60
2018,12,10,14,25,8.60
2018,12,10,14,26,8.60
2018,12,10,14,27,8.50
2018,12,10,14,28,8.50
2018,12,10,14,29,8.50
2018,12,10,14,30,8.50
2018,12,10,14,31,8.60
2018,12,10,14,32,8.60
2018,12,10,14,33,8.60
2018,12,10,14,34,8.60
2018,12,10,14,35,8.50
2018,12,10,14,36,8.50
2018,12,10,14,37,8.50
2018,12,10,14,38,8.50
2018,12,10,14,39,8.40
2018,12,10,14,40,8.40
2018,12,10,14,41,8.40
2018,12,10,14,42,8.30
2018,12,10,14,43,8.30
2018,12,10,14,44,8.20
2018,12,10,14,45,8.20
2018,12,10,14,46,8.10
2018,12,10,14,47,8.10
2018,12,10,14,48,8.00
2018,12,10,14,49,8.00
2018,12,10,14,50,8.00
2018,12,10,14,51,7.90
2018,12,10,14,52,7.90
2018,12,10,14,53,7.90
2018,12,10,14,54,7.90
2018,12,10,14,55,7.80
2018,12,10,14,56,7.80
2018,12,10,14,57,7.80
2018,12,10,14,58,7.80
2018,12,10,14,59,7.80
2018,12,10,15,00,7.80
2018,12,10,15,01,7.80
2018,12,10,15,02,7.80
2018,12,10,15,03,7.80
2018,12,10,15,04,7.80
2018,12,10,15,05,7.80
2018,12,10,15,06,7.80
2018,12,10,15,07,7.80
2018,12,10,15,08,7.80
2018,12,10,15,09,7.80
2018,12,10,15,10,7.90
2018,12,10,15,11,7.90
2018,12,10,15,12,7.90
2018,12,10,15,13,7.90
2018,12,10,15,14,7.80
2018,12,10,15,15,7.80
2018,12,10,15,16,7.90
2018,12,10,15,17,7.90
2018,12,10,15,18,7.90
2018,12,10,15,19,7.90
2018,12,10,15,20,7.80
2018,12,10,15,21,7.80
2018,12,10,15,22,7.80
2018,12,10,15,23,7.80
2018,12,10,15,24,7.80
2018,12,10,15,25,7.80
2018,12,10,15,26,7.80
2018,12,10,15,27,7.80
2018,12,10,15,28,7.80
2018,12,10,15,29,7.80
2018,12,10,15,30,7.80
2018,12,10,15,31,7.80
2018,12,10,15,32,7.80
2018,12,10,15,33,7.80
2018,12,10,15,34,7.80
2018,12,10,15,35,7.80
2018,12,10,15,36,7.80
2018,12,10,15,37,7.80
2018,12,10,15,38,7.80
2018,12,10,15,39,7.80
2018,12,10,15,40,7.80
2018,12,10,15,41,7.80
2018,12,10,15,42,7.80
2018,12,10,15,43,7.80
2018,12,10,15,44,7.80
2018,12,10,15,45,7.80
2018,12,10,15,46,7.70
2018,12,10,15,47,7.70
2018,12,10,15,48,7.70
2018,12,10,15,49,7.70
2018,12,10,15,50,7.70
2018,12,10,15,51,7.70
2018,12,10,15,52,7.70
2018,12,10,15,53,7.70
2018,12,10,15,54,7.70
2018,12,10,15,55,7.60
2018,12,10,15,56,7.60
2018,12,10,15,57,7.60
2018,12,10,15,58,7.60
2018,12,10,15,59,7.60
2018,12,10,16,00,7.50
2018,12,10,16,01,7.50
2018,12,10,16,02,7.50
2018,12,10,16,03,7.40
2018,12,10,16,04,7.40
2018,12,10,16,05,7.40
2018,12,10,16,06,7.40
2018,12,10,16,07,7.40
2018,12,10,16,08,7.40
2018,12,10,16,09,7.40
2018,12,10,16,10,7.30
2018,12,10,16,11,7.30
2018,12,10,16,12,7.30
2018,12,10,16,13,7.30
2018,12,10,16,14,7.30
2018,12,10,16,15,7.30
2018,12,10,16,16,7.30
2018,12,10,16,17,7.30
2018,12,10,16,18,7.20
2018,12,10,16,19,7.20
2018,12,10,16,20,7.20
2018,12,10,16,21,7.20
2018,12,10,16,22,7.20
2018,12,10,16,23,7.20
2018,12,10,16,24,7.20
2018,12,10,16,25,7.20
2018,12,10,16,26,7.10
2018,12,10,16,27,7.10
2018,12,10,16,28,7.10
2018,12,10,16,29,7.10
2018,12,10,16,30,7.10
2018,12,10,16,31,7.10
2018,12,10,16,32,7.10
2018,12,10,16,33,7.10
2018,12,10,16,34,7.10
2018,12,10,16,35,7.10
2018,12,10,16,36,7.10
2018,12,10,16,37,7.10
2018,12,10,16,38,7.10
2018,12,10,16,39,7.10
2018,12,10,16,40,7.10
2018,12,10,16,41,7.10
2018,12,10,16,42,7.10
2018,12,10,16,43,7.10
2018,12,10,16,44,7.10
2018,12,10,16,45,7.10
2018,12,10,16,46,7.10
2018,12,10,16,47,7.10
2018,12,10,16,48,7.10
2018,12,10,16,49,7.10
2018,12,10,16,50,7.10
2018,12,10,16,51,7.10
2018,12,10,16,52,7.10
2018,12,10,16,53,7.10
2018,12,10,16,54,7.10
2018,12,10,16,55,7.20
2018,12,10,16,56,7.20
2018,12,10,16,57,7.20
2018,12,10,16,58,7.20
2018,12,10,16,59,7.20
2018,12,10,17,00,7.20
2018,12,10,17,01,7.20
2018,12,10,17,02,7.20
2018,12,10,17,03,7.20
2018,12,10,17,04,7.20
2018,12,10,17,05,7.20
2018,12,10,17,06,7.20
2018,12,10,17,07,7.20
2018,12,10,17,08,7.20
2018,12,10,17,09,7.20
2018,12,10,17,10,7.20
2018,12,10,17,11,7.20
2018,12,10,17,12,7.20
2018,12,10,17,13,7.20
2018,12,10,17,14,7.20
2018,12,10,17,15,7.20
2018,12,10,17,16,7.20
2018,12,10,17,17,7.20
2018,12,10,17,18,7.20
2018,12,10,17,19,7.20
2018,12,10,17,20,7.20
2018,12,10,17,21,7.20
2018,12,10,17,22,7.20
2018,12,10,17,23,7.20
2018,12,10,17,24,7.20
2018,12,10,17,25,7.20
2018,12,10,17,26,7.20
2018,12,10,17,27,7.20
2018,12,10,17,28,7.20
2018,12,10,17,29,7.20
2018,12,10,17,30,7.20
2018,12,10,17,31,7.20
2018,12,10,17,32,7.20
2018,12,10,17,33,7.20
2018,12,10,17,34,7.20
2018,12,10,17,35,7.10
2018,12,10,17,36,7.10
2018,12,10,17,37,7.10
2018,12,10,17,38,7.10
2018,12,10,17,39,7.10
2018,12,10,17,40,7.10
2018,12,10,17,41,7.10
2018,12,10,17,42,7.10
2018,12,10,17,43,7.10
2018,12,10,17,44,7.10
2018,12,10,17,45,7.10
2018,12,10,17,46,7.10
2018,12,10,17,47,7.10
2018,12,10,17,48,7.10
2018,12,10,17,49,7.10
2018,12,10,17,50,7.10
2018,12,10,17,51,7.10
2018,12,10,17,52,7.10
2018,12,10,17,53,7.10
2018,12,10,17,54,7.10
2018,12,10,17,55,7.10
2018,12,10,17,56,7.10
2018,12,10,17,57,7.10
2018,12,10,17,58,7.10
2018,12,10,17,59,7.10
2018,12,10,18,00,7.10
2018,12,10,18,01,7.10
2018,12,10,18,02,7.10
2018,12,10,18,03,7.10
2018,12,10,18,04,7.00
2018,12,10,18,05,7.00
2018,12,10,18,06,7.00
2018,12,10,18,07,7.00
2018,12,10,18,08,7.00
2018,12,10,18,09,7.00
2018,12,10,18,10,7.00
2018,12,10,18,11,7.00
2018,12,10,18,12,7.00
2018,12,10,18,13,7.00
2018,12,10,18,14,7.00
2018,12,10,18,15,6.90
2018,12,10,18,16,6.90
2018,12,10,18,17,6.90
2018,12,10,18,18,6.90
2018,12,10,18,19,6.90
2018,12,10,18,20,6.90
2018,12,10,18,21,6.90
2018,12,10,18,22,6.90
2018,12,10,18,23,6.90
2018,12,10,18,24,6.90
2018,12,10,18,25,6.90
2018,12,10,18,26,6.90
2018,12,10,18,27,6.90
2018,12,10,18,28,6.80
2018,12,10,18,29,6.80
2018,12,10,18,30,6.80
2018,12,10,18,31,6.80
2018,12,10,18,32,6.80
2018,12,10,18,33,6.80
2018,12,10,18,34,6.70
2018,12,10,18,35,6.70
2018,12,10,18,36,6.70
2018,12,10,18,37,6.70
2018,12,10,18,38,6.70
2018,12,10,18,39,6.60
2018,12,10,18,40,6.60
2018,12,10,18,41,6.60
2018,12,10,18,42,6.60
2018,12,10,18,43,6.50
2018,12,10,18,44,6.50
2018,12,10,18,45,6.50
2018,12,10,18,46,6.40
2018,12,10,18,47,6.40
2018,12,10,18,48,6.40
2018,12,10,18,49,6.30
2018,12,10,18,50,6.30
2018,12,10,18,51,6.30
2018,12,10,18,52,6.30
2018,12,10,18,53,6.30
2018,12,10,18,54,6.30
2018,12,10,18,55,6.30
2018,12,10,18,56,6.20
2018,12,10,18,57,6.20
2018,12,10,18,58,6.20
2018,12,10,18,59,6.20
2018,12,10,19,00,6.10
2018,12,10,19,01,6.10
2018,12,10,19,02,6.00
2018,12,10,19,03,6.00
2018,12,10,19,04,6.00
2018,12,10,19,05,6.00
2018,12,10,19,06,6.00
2018,12,10,19,07,6.00
2018,12,10,19,08,6.00
2018,12,10,19,09,6.00
2018,12,10,19,10,5.90
2018,12,10,19,11,5.90
2018,12,10,19,12,5.90
2018,12,10,19,13,5.90
2018,12,10,19,14,5.90
2018,12,10,19,15,5.90
2018,12,10,19,16,5.80
2018,12,10,19,17,5.80
2018,12,10,19,18,5.70
2018,12,10,19,19,5.70
2018,12,10,19,20,5.70
2018,12,10,19,21,5.60
2018,12,10,19,22,5.60
2018,12,10,19,23,5.50
2018,12,10,19,24,5.50
2018,12,10,19,25,5.50
2018,12,10,19,26,5.50
2018,12,10,19,27,5.40
2018,12,10,19,28,5.50
2018,12,10,19,29,5.50
2018,12,10,19,30,5.60
2018,12,10,19,31,5.60
2018,12,10,19,32,5.60
2018,12,10,19,33,5.60
2018,12,10,19,34,5.60
2018,12,10,19,35,5.70
2018,12,10,19,36,5.80
2018,12,10,19,37,6.00
2018,12,10,19,38,6.10
2018,12,10,19,39,6.20
2018,12,10,19,40,6.30
2018,12,10,19,41,6.40
2018,12,10,19,42,6.50
2018,12,10,19,43,6.60
2018,12,10,19,44,6.60
2018,12,10,19,45,6.70
2018,12,10,19,46,6.70
2018,12,10,19,47,6.80
2018,12,10,19,48,6.80
2018,12,10,19,49,6.90
2018,12,10,19,50,6.90
2018,12,10,19,51,7.00
2018,12,10,19,52,7.00
2018,12,10,19,53,7.10
2018,12,10,19,54,7.10
2018,12,10,19,55,7.10
2018,12,10,19,56,7.20
2018,12,10,19,57,7.20
2018,12,10,19,58,7.20
2018,12,10,19,59,7.20
2018,12,10,20,00,7.20
2018,12,10,20,01,7.20
2018,12,10,20,02,7.30
2018,12,10,20,03,7.30
2018,12,10,20,04,7.30
2018,12,10,20,05,7.30
2018,12,10,20,06,7.30
2018,12,10,20,07,7.30
2018,12,10,20,08,7.30
2018,12,10,20,09,7.30
2018,12,10,20,10,7.30
2018,12,10,20,11,7.30
2018,12,10,20,12,7.30
2018,12,10,20,13,7.30
2018,12,10,20,14,7.40
2018,12,10,20,15,7.40
2018,12,10,20,16,7.40
2018,12,10,20,17,7.40
2018,12,10,20,18,7.40
2018,12,10,20,19,7.40
2018,12,10,20,20,7.40
2018,12,10,20,21,7.40
2018,12,10,20,22,7.40
2018,12,10,20,23,7.40
2018,12,10,20,24,7.40
2018,12,10,20,25,7.40
2018,12,10,20,26,7.40
2018,12,10,20,27,7.40
2018,12,10,20,28,7.40
2018,12,10,20,29,7.40
2018,12,10,20,30,7.40
2018,12,10,20,31,7.40
2018,12,10,20,32,7.40
2018,12,10,20,33,7.40
2018,12,10,20,34,7.40
2018,12,10,20,35,7.40
2018,12,10,20,36,7.40
2018,12,10,20,37,7.40
2018,12,10,20,38,7.40
2018,12,10,20,39,7.40
2018,12,10,20,40,7.40
2018,12,10,20,41,7.40
2018,12,10,20,42,7.40
2018,12,10,20,43,7.40
2018,12,10,20,44,7.40
2018,12,10,20,45,7.40
2018,12,10,20,46,7.40
2018,12,10,20,47,7.40
2018,12,10,20,48,7.40
2018,12,10,20,49,7.50
2018,12,10,20,50,7.50
2018,12,10,20,51,7.50
2018,12,10,20,52,7.50
2018,12,10,20,53,7.50
2018,12,10,20,54,7.50
2018,12,10,20,55,7.50
2018,12,10,20,56,7.50
2018,12,10,20,57,7.60
2018,12,10,20,58,7.60
2018,12,10,20,59,7.60
2018,12,10,21,00,7.60
2018,12,10,21,01,7.60
2018,12,10,21,02,7.60
2018,12,10,21,03,7.60
2018,12,10,21,04,7.60
2018,12,10,21,05,7.60
2018,12,10,21,06,7.60
2018,12,10,21,07,7.60
2018,12,10,21,08,7.60
2018,12,10,21,09,7.60
2018,12,10,21,10,7.60
2018,12,10,21,11,7.60
2018,12,10,21,12,7.60